Simultaneous Nadir Overpasses (SNOs) Predictions

Prediction of SNOs between NOAA-20 and AQUA Satellite Orbit:

Table of predicted SNOs for the next 14.0 days since TLE Epoch: 7/15/2024
Index Date (NOAA-20) Time (NOAA-20) Lat,Lon (NOAA-20) SZA (NOAA-20 ) Date (AQUA) Time (AQUA) Lat,Lon (AQUA) SZA (AQUA ) Distance(km) Time Diff (sec)
1 07/15/2024 16:39:54 81.29,-145.06 66.87 07/15/2024 16:40:39 81.29,-144.97 66.83 1.68 45
2 07/15/2024 17:30:37 -81.30, 22.92 113.23 07/15/2024 17:30:01 -81.30, 22.81 113.19 1.92 36
3 07/18/2024 04:43:06 -81.28,-146.18 112.66 07/18/2024 04:44:05 -81.28,-146.04 112.72 2.43 59
4 07/18/2024 05:33:49 81.30, 21.96 67.23 07/18/2024 05:33:25 81.30, 22.03 67.24 1.33 24
5 07/20/2024 16:46:15 81.29,-146.46 67.74 07/20/2024 16:47:26 81.29,-146.59 67.71 2.26 71
6 07/20/2024 17:36:59 -81.30, 21.20 112.31 07/20/2024 17:36:48 -81.30, 21.23 112.31 0.67 11
7 07/23/2024 05:40:11 81.29, 20.05 68.24 07/23/2024 05:40:10 81.29, 20.12 68.23 1.29 1
8 07/25/2024 17:43:21 -81.30, 19.65 111.29 07/25/2024 17:43:31 -81.29, 19.48 111.27 2.95 10
9 07/25/2024 18:34:03 81.31,-171.93 68.56 07/25/2024 18:32:50 81.33,-172.16 68.64 4.23 73
10 07/28/2024 05:46:32 81.30, 18.70 69.30 07/28/2024 05:46:49 81.30, 18.82 69.27 2.08 17



Historial Predications of SNOs between NOAA-20 and AQUA
